Wind_Speed
21 22 23 24 24 26 29 29 27 25 25 27 27 28 31 33 35 35 34 32 30 25 20 16 17 20 21 22 22 22 23 24 23 21 20 19 18 17 17 19 19 19 19 19 20 18 15 14 15 13 12 13 14 15 12 10 13 15 10 7 7 9 12 12 13 15 14 11 10 9 8 9 9 9 9 9 9 8 7 5 4 4 4 5 6
23 23 24 24 25 27 29 29 29 28 28 29 29 29 32 34 37 38 38 38 38 37 32 24 17 15 18 21 22 22 23 24 25 24 23 21 20 19 18 18 20 20 20 19 19 19 16 14 17 16 14 16 16 15 14 11 11 14 12 9 8 8 11 14 14 15 16 14 12 11 10 10 10 10 11 10 10 9 7 6 4 4 4 4 5
25 26 25 25 25 27 30 30 30 30 30 30 29 30 32 35 37 40 41 42 44 45 42 34 26 19 14 15 20 22 23 24 25 25 25 25 23 22 21 20 20 21 22 21 20 20 18 15 17 19 18 19 17 15 16 14 12 14 13 11 9 8 10 14 15 16 18 17 15 13 12 11 11 11 12 12 10 9 8 6 5 4 4 3 3
26 26 27 25 23 25 28 31 31 30 31 31 30 30 33 35 37 39 42 44 46 48 48 44 36 29 23 17 15 19 22 24 26 26 26 26 25 24 24 23 22 22 23 23 22 21 20 18 18 19 20 21 19 17 18 17 15 14 13 13 11 9 10 12 16 17 18 19 18 15 14 13 13 13 13 13 11 10 9 7 5 4 4 3 3
25 27 29 26 22 24 26 28 31 32 32 32 31 30 32 34 36 38 41 44 46 48 49 49 46 42 38 31 22 16 18 22 25 27 28 28 27 26 25 25 25 25 24 24 24 23 22 21 19 19 21 23 22 20 20 19 17 14 13 15 14 11 10 12 14 17 19 20 20 18 17 16 15 14 15 15 13 11 11 9 6 4 4 3 3
25 27 29 28 25 23 24 25 29 31 33 33 32 32 32 33 34 37 40 43 45 47 48 48 48 49 49 46 39 29 20 19 23 26 28 30 30 29 27 27 27 27 26 25 25 26 25 23 21 21 22 23 23 22 22 20 18 17 17 17 18 16 12 11 13 16 19 21 22 21 19 18 17 16 16 16 14 12 12 11 7 5 4 3 3
25 26 27 28 26 25 24 26 27 29 32 33 33 34 34 34 34 35 38 41 43 44 46 47 47 48 50 52 50 44 33 23 19 24 27 29 31 32 31 29 28 28 28 27 27 27 28 27 24 23 23 24 23 22 22 21 20 21 21 20 20 20 15 12 12 14 18 21 22 22 21 20 19 19 18 17 16 13 13 13 9 7 5 4 3
24 25 26 26 27 27 27 28 28 29 31 33 34 35 37 37 37 36 36 39 41 41 44 45 45 46 48 52 54 52 47 37 26 19 24 29 31 32 33 32 31 30 30 29 29 29 30 30 29 26 25 25 24 24 24 23 23 22 22 22 22 22 19 14 12 12 16 21 23 23 23 22 21 20 20 19 18 15 14 14 12 9 7 5 3
24 25 25 25 26 27 28 30 30 31 32 35 36 36 37 39 39 37 36 37 40 40 42 44 44 44 46 49 53 55 54 50 41 29 20 23 29 32 33 34 33 33 32 31 30 30 31 32 32 31 29 28 27 27 28 26 24 24 22 23 23 23 22 19 14 13 15 20 24 24 24 24 23 22 22 21 20 18 16 16 14 12 9 7 5
23 24 25 25 25 26 27 29 31 33 34 36 39 39 39 39 39 38 35 35 38 40 41 42 42 43 45 47 51 54 56 56 52 44 32 22 22 29 33 34 35 35 35 34 33 32 32 33 34 34 32 31 30 30 31 29 26 26 25 23 24 25 24 22 18 16 16 18 23 26 26 25 25 24 23 23 22 20 18 17 16 14 12 10 8
22 23 24 24 24 24 26 28 31 34 36 37 39 40 40 39 39 38 35 33 35 39 40 41 42 42 44 47 49 52 54 57 58 54 46 35 24 22 28 34 36 36 36 36 35 34 34 34 35 36 36 34 33 32 32 32 29 28 27 24 24 26 25 24 22 19 18 17 21 26 27 27 27 26 25 24 24 22 21 19 18 17 15 12 11
22 22 23 23 23 24 26 29 32 35 38 39 40 41 41 41 39 38 36 33 33 36 38 40 41 42 44 46 48 51 53 55 58 59 56 48 37 26 22 29 35 37 37 37 38 37 36 36 36 37 38 38 37 35 33 33 33 32 30 27 27 28 26 26 26 23 20 19 20 24 28 29 28 28 27 26 25 24 23 21 20 18 17 15 13
25 24 23 24 24 25 27 30 33 36 38 41 42 42 42 42 41 39 37 35 33 34 36 38 39 41 43 45 47 50 52 55 56 59 60 58 51 38 27 23 29 36 39 39 39 39 38 38 38 38 39 40 40 39 37 36 36 36 34 32 31 30 28 27 27 26 23 21 21 22 26 30 30 29 29 28 27 26 24 23 22 20 19 17 15
27 26 26 26 26 27 29 31 33 36 38 41 42 42 42 43 43 41 39 38 35 34 35 37 38 40 42 44 47 50 52 54 56 58 60 62 60 52 39 27 24 30 37 40 41 41 40 40 40 40 40 41 43 43 42 40 39 39 37 35 35 34 32 31 29 28 26 24 23 22 24 29 32 31 30 30 29 27 26 25 24 22 21 19 18
28 28 28 28 28 29 30 32 34 36 38 40 42 43 43 44 44 43 41 39 38 36 36 37 38 39 41 43 46 49 52 54 55 57 59 61 63 62 53 39 28 25 31 38 41 42 43 42 41 42 43 43 44 45 46 44 43 43 41 39 38 37 36 34 31 31 30 28 26 26 25 27 31 33 33 32 31 30 28 27 26 24 23 22 20
29 29 29 29 29 30 31 33 34 36 38 40 42 44 45 46 45 45 42 40 39 38 37 37 38 38 39 41 44 47 51 54 56 57 59 60 63 65 63 53 39 28 26 32 39 43 44 44 44 43 44 46 46 46 48 48 47 47 45 43 42 41 39 36 34 33 34 32 31 31 29 27 29 33 35 34 34 33 31 29 28 26 25 24 22
31 31 30 30 30 30 31 33 34 36 39 41 44 46 47 47 46 44 43 42 40 39 39 38 38 39 39 40 42 45 48 52 55 58 59 61 62 65 67 64 53 38 28 28 34 40 44 46 46 45 46 47 48 48 48 49 50 50 48 46 45 45 43 39 37 36 36 35 35 36 33 30 29 31 34 36 36 34 33 32 30 29 27 26 24
32 31 31 31 31 31 31 32 34 37 40 42 45 47 47 47 45 44 43 42 41 40 40 40 40 40 40 40 42 44 46 49 53 56 59 61 62 63 66 68 64 52 37 28 29 35 42 46 47 47 47 48 49 50 50 50 51 51 51 49 48 47 47 44 41 40 40 39 39 39 36 33 31 30 33 37 37 36 35 34 32 31 29 28 26
33 32 32 31 31 31 32 33 35 37 40 42 44 45 47 47 46 44 43 43 42 40 40 41 41 41 41 41 43 45 46 49 52 55 57 59 61 63 65 67 67 62 50 36 28 30 37 43 47 49 49 49 50 51 52 52 51 52 52 52 51 49 49 48 45 44 44 43 42 41 39 35 34 32 32 34 37 37 36 35 34 33 32 31 29
33 33 32 31 31 32 33 34 36 38 40 42 44 46 47 47 46 45 44 43 42 42 41 41 42 42 42 42 44 46 48 51 54 55 57 59 61 62 64 67 67 65 59 48 34 28 31 38 45 49 50 51 51 51 52 53 53 52 53 54 53 52 51 50 49 47 46 46 44 41 40 39 38 36 33 33 36 38 37 36 35 35 35 33 32
32 32 32 31 32 32 33 35 36 39 41 43 45 46 47 48 48 46 45 43 43 44 43 42 42 42 42 43 45 48 51 53 56 58 59 60 61 62 63 66 68 66 64 57 46 33 28 31 38 46 50 52 52 52 53 54 54 54 53 54 55 55 54 53 51 49 48 48 47 43 42 42 42 40 37 34 35 38 39 39 38 38 37 36 35
32 32 32 32 32 33 34 36 38 40 42 44 46 47 47 48 48 47 46 45 44 46 45 42 42 42 43 44 47 49 52 55 58 60 62 63 64 64 64 66 67 66 65 63 55 44 32 28 31 39 46 51 53 54 54 54 55 55 55 55 55 56 56 56 54 53 51 51 50 48 47 46 46 44 41 38 37 37 40 42 41 40 39 38 37
33 33 33 34 34 36 37 38 40 41 43 45 46 47 47 47 47 47 47 45 44 46 46 42 41 43 44 45 47 50 53 57 60 61 64 66 67 67 67 67 68 67 65 64 60 52 42 32 29 32 39 47 52 55 55 55 56 56 57 57 56 56 57 58 58 56 55 54 53 53 52 50 49 47 45 43 41 39 40 42 42 41 40 39 39
35 35 36 37 38 39 40 41 41 42 43 44 46 46 46 46 46 46 46 45 45 46 46 42 41 43 44 45 48 51 54 57 60 62 65 69 69 69 68 69 70 69 66 66 64 57 48 39 32 30 32 39 47 53 56 58 58 58 58 59 58 58 58 59 59 59 58 57 56 55 54 52 52 50 48 46 44 41 40 42 42 42 42 40 40
37 37 38 39 41 42 43 43 42 42 43 44 46 45 45 45 45 45 45 45 45 46 47 44 43 43 44 46 49 53 56 58 61 63 67 71 70 69 69 70 72 71 68 68 67 61 52 45 37 32 30 32 39 47 54 58 60 60 60 61 61 61 60 60 60 60 60 61 60 58 57 55 54 53 51 49 47 44 43 43 43 45 45 43 41
38 39 41 42 43 44 45 45 44 43 44 45 45 44 43 43 44 45 45 45 46 47 48 47 46 46 46 48 51 54 57 59 61 65 69 72 71 69 69 71 73 72 70 70 70 65 55 47 40 35 32 32 34 40 49 56 61 63 63 63 63 63 63 62 62 62 63 64 63 61 60 58 57 56 55 53 50 48 46 45 45 46 47 47 45
41 42 43 44 45 46 47 47 45 44 45 45 43 42 42 44 46 47 46 45 46 48 50 49 48 47 48 50 53 56 58 60 62 66 71 72 71 70 70 72 74 72 72 72 73 70 60 48 41 35 33 34 34 36 42 50 58 63 66 66 66 66 66 66 65 64 65 66 65 62 62 60 60 59 58 57 55 52 49 47 47 47 48 49 49
43 44 45 46 47 47 48 47 45 45 44 42 41 43 45 48 50 49 46 45 46 49 50 50 49 49 50 52 55 57 60 62 64 69 72 71 70 71 71 73 74 72 73 75 76 74 64 52 43 35 31 33 37 38 39 44 53 61 67 69 69 69 68 69 68 67 68 69 68 66 64 63 62 62 62 60 58 56 53 50 49 48 48 49 50
46 46 46 48 48 46 45 44 44 44 41 40 43 47 49 52 52 49 47 46 47 48 50 50 49 49 51 54 56 58 61 64 67 71 71 70 70 72 73 74 74 72 74 78 80 79 69 56 47 39 33 31 35 40 41 43 48 56 65 70 72 72 71 71 71 71 70 71 72 71 69 67 65 64 65 64 61 59 57 54 51 50 49 49 49
48 47 48 50 48 43 41 41 42 43 40 41 46 49 51 54 52 50 48 48 48 49 50 50 50 51 53 55 56 59 63 67 70 71 70 69 71 73 74 75 74 73 74 78 83 83 73 61 52 44 38 35 34 39 43 45 47 52 60 69 74 75 75 74 74 74 73 73 74 75 74 72 69 67 67 67 65 62 60 57 55 52 51 50 50
48 49 50 50 46 41 41 43 44 45 43 44 48 51 54 56 53 51 50 49 49 49 49 50 51 52 54 54 58 62 67 70 71 69 69 70 72 74 74 75 75 74 76 79 84 85 77 66 58 50 44 40 38 38 41 47 50 51 55 64 72 77 78 78 77 77 77 76 76 77 77 77 74 71 69 69 68 66 63 60 58 56 54 52 51
48 50 50 48 44 43 45 47 47 47 47 50 52 55 57 57 53 51 50 49 49 48 48 49 50 52 53 56 61 66 69 70 68 68 69 71 73 75 76 76 76 76 78 80 84 86 79 69 62 56 50 46 43 41 41 45 51 52 53 57 67 75 80 81 81 80 79 79 78 77 78 79 78 75 72 71 71 69 67 64 60 58 57 55 53
48 49 48 45 44 45 47 49 50 51 52 55 56 57 57 55 52 50 49 48 48 47 47 48 49 53 56 60 64 67 68 67 67 69 70 72 75 77 77 78 78 79 81 82 84 85 79 70 63 59 56 53 50 46 43 45 50 53 54 54 60 69 77 82 84 83 82 81 81 80 79 80 80 79 76 74 74 72 69 67 64 61 60 58 56
51 51 47 44 44 46 48 50 53 54 56 57 57 56 55 53 51 50 49 47 46 46 47 50 53 57 61 63 64 65 66 67 70 72 72 74 77 78 79 80 80 82 83 85 86 83 77 71 65 61 59 57 55 50 45 45 49 53 55 53 54 61 72 79 83 85 85 83 82 82 81 80 80 80 79 78 77 75 72 70 67 64 62 61 59
56 56 50 44 46 48 50 52 52 53 55 56 55 55 53 52 52 52 52 49 47 49 52 56 60 62 62 63 63 65 68 72 75 75 75 77 79 79 81 81 81 84 86 87 88 82 74 70 66 63 62 60 59 54 47 45 47 52 56 54 51 53 63 74 80 83 85 85 84 83 83 83 81 80 80 79 79 79 76 73 71 68 65 63 62
60 57 51 47 48 49 51 52 50 50 52 53 54 54 52 52 53 54 54 53 53 56 58 60 62 63 63 64 67 71 74 77 78 78 79 80 80 82 83 82 83 86 88 89 89 81 72 68 67 65 63 63 62 57 49 45 46 50 55 55 51 49 55 66 75 79 83 85 85 85 84 84 83 82 80 80 81 81 79 76 74 72 69 66 64
57 52 49 47 47 48 51 53 50 49 50 52 54 55 54 54 54 55 58 59 60 60 59 60 62 63 66 69 73 75 77 79 80 81 81 82 84 84 83 83 86 89 90 92 90 82 72 68 66 65 65 65 65 61 53 48 45 48 53 54 51 48 49 57 68 76 79 82 85 86 85 85 85 85 83 82 82 82 81 78 77 75 72 70 68
53 49 49 47 47 49 52 53 50 49 50 53 56 57 57 56 56 59 62 63 62 60 60 62 64 67 71 74 77 78 79 81 82 82 83 85 86 85 84 85 88 91 93 95 92 83 75 68 65 65 66 68 67 63 56 51 46 45 50 52 51 49 47 49 59 70 76 79 82 85 87 86 86 86 86 84 83 83 82 80 79 77 75 73 71
51 50 50 50 50 52 52 50 47 47 50 53 56 59 60 59 61 64 66 65 64 64 65 67 69 71 75 77 78 79 81 83 84 85 87 88 86 85 86 88 91 93 97 97 93 85 76 69 66 65 67 69 68 64 58 52 47 44 46 50 50 48 44 44 51 63 72 76 78 82 85 87 87 86 87 86 84 84 84 82 80 79 77 75 73
52 51 53 54 53 51 50 47 47 49 52 54 56 59 60 60 64 68 69 69 68 69 70 70 71 74 77 79 80 83 85 86 87 89 90 87 86 87 89 91 93 97 99 99 95 87 77 70 68 67 68 69 68 65 59 52 48 44 43 46 49 46 42 42 47 57 67 74 77 78 82 86 88 87 87 88 87 85 85 84 81 79 78 76 75
54 54 57 56 53 51 49 48 50 53 55 56 58 60 61 63 67 70 70 70 70 71 71 70 72 76 79 81 84 86 87 89 91 91 89 87 88 90 92 94 97 100 102 101 97 88 77 72 71 70 70 69 67 64 59 51 46 44 43 44 46 46 43 42 46 53 62 70 75 76 78 83 87 88 88 88 88 87 85 85 83 81 79 77 76
56 58 59 56 53 52 51 50 52 54 55 56 58 61 63 66 69 70 70 70 71 71 71 72 74 78 81 84 87 88 90 92 92 90 88 89 92 93 95 98 101 103 104 104 98 87 77 75 75 73 71 69 67 63 58 51 44 42 42 42 44 45 44 44 46 52 59 66 71 74 76 79 83 87 88 87 88 88 86 85 85 83 80 78 77
56 59 59 54 50 50 50 50 51 53 54 56 60 63 65 67 69 70 71 72 73 74 75 76 78 80 84 87 89 91 92 92 90 89 90 93 95 96 99 102 105 107 107 105 97 86 79 79 78 75 71 68 66 62 57 50 43 40 40 41 42 44 45 45 47 50 56 61 65 70 75 77 78 82 86 87 87 89 87 86 85 85 83 80 78
59 61 58 52 48 48 51 52 52 53 53 57 63 66 66 68 70 71 73 75 76 77 78 79 81 83 86 89 91 92 92 90 89 90 93 96 97 99 102 104 107 109 108 103 94 86 83 83 79 76 72 69 65 60 56 50 43 39 39 39 40 42 45 46 46 50 54 57 59 65 72 76 74 76 81 85 87 88 88 87 86 85 84 82 80
63 63 60 56 53 52 54 54 53 55 57 61 66 68 68 70 72 72 75 77 78 78 79 81 84 86 88 90 91 91 90 90 91 94 96 97 100 102 105 107 110 110 107 101 94 90 88 85 80 76 73 68 64 58 54 50 43 38 37 38 39 41 43 45 47 51 53 53 54 59 67 73 72 70 75 83 87 87 87 87 87 85 83 82 81
63 63 63 61 56 53 55 56 57 60 62 64 66 67 67 69 70 72 75 78 80 81 82 83 86 88 90 91 91 91 91 93 94 96 97 99 102 105 107 110 111 110 106 101 97 94 90 84 79 76 72 67 62 57 52 49 43 38 36 37 39 39 42 46 48 50 52 50 51 55 61 69 70 68 72 79 84 86 87 87 88 86 84 82 81
59 59 59 57 52 50 54 58 61 64 66 65 66 66 66 68 71 74 77 81 85 86 86 86 88 90 92 92 92 92 94 96 97 98 100 103 105 107 110 112 111 109 105 103 100 96 90 84 79 74 69 64 61 56 50 47 43 38 35 37 39 38 41 47 47 49 51 48 47 50 56 65 69 68 71 76 80 84 87 87 88 88 86 84 82
55 54 52 52 53 54 57 61 64 68 71 71 70 69 68 70 75 79 84 87 90 90 89 89 90 91 93 93 94 96 97 99 101 102 104 106 107 109 111 111 110 109 107 105 100 94 89 83 78 72 67 62 59 54 49 44 41 38 36 36 39 39 41 45 47 49 51 47 43 45 50 61 69 69 70 74 77 82 87 88 90 90 89 87 84
49 49 49 52 56 59 61 64 68 71 74 76 75 73 73 76 81 86 89 92 94 93 92 92 93 93 95 96 97 99 100 102 104 105 106 107 108 109 110 110 110 109 107 103 97 93 88 82 76 70 64 60 57 53 47 43 39 37 37 37 37 38 41 44 46 49 49 45 40 42 48 61 70 70 70 72 75 80 86 89 91 91 90 88 85
48 50 51 54 60 66 68 70 72 73 74 76 76 78 80 82 86 89 91 93 94 94 94 94 95 95 96 98 99 101 103 105 106 106 107 108 108 109 109 109 109 107 104 99 95 91 87 81 74 67 62 59 56 52 46 42 37 36 37 37 37 38 40 43 45 48 48 44 40 42 50 62 70 69 68 71 74 79 84 88 91 90 88 87 86
55 55 56 58 62 66 68 71 74 74 75 75 77 78 80 82 85 87 90 92 93 94 95 96 97 97 98 99 101 103 105 105 106 107 108 108 109 109 109 108 105 102 99 96 93 89 85 80 73 67 62 57 54 50 46 41 37 35 35 36 37 38 39 42 44 46 47 44 42 45 52 62 67 67 67 70 74 77 79 83 86 86 85 86 85
Wind_Direction
32 34 34 33 32 30 27 28 30 29 25 21 23 24 23 27 28 30 32 31 27 18 2 334 302 282 276 276 276 275 278 281 284 286 287 288 287 282 270 261 258 257 257 256 258 254 248 240 223 227 248 260 273 283 296 311 310 306 288 251 230 223 221 216 208 207 208 208 209 214 220 219 209 195 184 170 161 155 151 142 126 104 85 76 68
30 27 26 25 25 27 30 33 35 32 27 22 21 23 27 30 31 32 34 34 32 29 24 16 356 317 285 274 272 272 273 275 277 279 281 283 282 281 276 268 260 258 258 256 257 253 249 239 222 221 235 247 259 273 286 298 300 301 294 264 240 228 224 219 213 207 207 209 208 212 216 219 215 202 190 180 171 166 162 150 135 121 106 95 88
25 23 22 22 28 36 35 33 33 32 29 26 25 28 30 31 30 31 31 31 29 27 26 24 19 6 333 292 275 271 269 269 270 272 274 276 278 277 275 271 264 259 257 256 257 256 252 245 231 224 229 240 247 256 270 284 289 295 300 282 254 240 231 224 218 211 207 207 207 209 213 217 217 208 195 188 182 177 172 160 145 131 117 108 105
26 26 25 24 30 33 28 27 30 30 28 26 27 27 28 28 29 29 28 27 25 25 25 26 25 21 10 346 305 280 271 266 265 267 268 269 270 271 272 271 267 261 257 256 256 255 251 247 241 235 234 239 242 245 256 265 271 283 298 290 268 250 241 232 225 217 210 207 207 207 209 214 216 212 201 193 192 187 181 172 158 140 121 104 97
27 27 27 26 25 23 23 27 28 27 25 23 24 24 24 25 26 25 24 23 22 22 23 26 28 27 24 16 360 325 289 273 266 264 265 266 266 265 265 266 268 265 260 257 255 254 250 246 243 241 239 239 240 242 244 248 254 266 281 283 274 259 243 239 233 226 218 210 207 206 206 210 213 214 207 198 198 197 190 181 171 154 129 104 84
23 23 25 26 23 20 20 20 20 21 22 22 22 20 20 20 19 19 20 20 20 20 20 22 24 26 28 26 20 8 339 299 277 269 266 266 266 266 263 261 262 263 262 258 254 252 250 246 241 239 238 235 233 236 237 236 243 256 264 270 270 261 243 236 239 234 227 218 211 207 205 208 211 213 211 204 201 201 198 189 181 169 147 120 91
18 18 18 20 20 19 16 13 13 14 16 19 20 19 16 14 11 12 15 16 16 17 18 19 20 22 25 26 25 22 13 350 308 281 271 267 266 266 266 263 259 258 258 257 254 251 248 246 242 237 233 230 228 231 232 230 235 248 256 259 261 261 251 236 238 241 237 228 219 212 208 206 209 212 213 210 206 203 201 196 189 181 169 146 120
11 11 11 11 12 12 13 11 10 8 8 10 11 12 12 11 9 8 8 11 12 14 17 17 18 19 21 23 24 24 22 16 359 318 283 270 266 265 265 265 262 259 256 255 253 251 247 244 241 238 231 229 229 229 230 229 230 236 245 249 251 257 257 246 240 246 242 235 227 219 213 208 208 211 214 214 212 208 203 201 197 190 184 175 164
5 4 3 3 4 7 9 10 9 7 6 6 5 5 6 7 8 7 4 4 7 11 14 16 16 16 17 20 22 23 24 21 15 3 328 286 270 264 263 262 262 261 259 256 252 249 247 243 240 238 233 230 232 232 231 230 226 225 230 235 241 249 251 247 244 244 243 238 232 225 218 213 210 210 213 216 217 214 208 204 203 199 194 190 192
360 360 359 359 0 3 7 8 8 7 6 6 5 4 4 4 6 6 4 1 3 6 9 12 14 14 14 16 18 20 22 22 19 14 3 336 292 270 263 261 260 260 259 258 255 250 247 243 240 238 235 231 231 233 234 232 226 222 221 224 234 240 240 243 245 242 241 240 235 230 223 218 213 211 212 215 218 219 215 209 208 206 202 198 200
352 354 357 358 358 360 2 4 5 5 5 4 4 4 3 2 2 4 3 0 0 3 5 7 10 12 12 12 14 16 17 19 20 18 12 2 339 297 271 263 260 258 257 257 256 253 248 244 241 239 236 231 229 231 235 236 229 224 223 222 229 235 235 239 244 243 242 240 236 232 227 223 218 214 213 215 217 219 219 216 213 212 211 207 204
345 345 349 352 354 355 355 357 359 1 1 1 1 1 1 360 358 359 359 359 358 359 1 3 5 8 9 10 10 12 13 15 16 17 16 10 0 339 300 271 262 259 257 255 254 254 250 245 241 240 238 234 230 228 232 237 233 227 227 225 227 232 233 234 240 244 244 241 238 234 229 226 222 218 215 215 216 217 219 220 219 217 216 215 212
340 339 340 342 344 347 348 350 352 354 356 357 357 356 356 356 355 354 354 354 354 355 357 359 2 3 5 6 6 7 9 10 12 14 15 14 9 358 337 299 270 260 257 255 252 252 251 247 242 239 239 237 234 229 228 233 233 229 228 226 228 232 231 229 235 242 244 241 240 237 232 227 225 223 219 217 217 217 218 219 220 221 220 219 218
335 335 334 333 334 337 341 344 346 348 349 351 352 351 350 351 351 350 350 350 350 349 351 354 358 0 1 2 2 2 3 6 8 9 10 12 11 7 356 333 296 269 258 255 252 250 249 248 245 240 237 237 236 233 228 228 229 229 228 227 229 232 230 227 229 235 242 244 243 242 237 231 227 225 222 219 219 219 218 218 219 221 222 222 221
331 331 330 328 328 330 333 336 339 341 342 344 345 346 346 346 347 347 347 346 346 344 345 348 352 357 359 359 359 359 0 2 4 5 7 7 9 9 5 352 328 293 267 256 252 250 248 247 246 242 238 236 236 236 233 229 227 228 228 228 230 231 229 226 225 227 232 238 243 241 237 233 228 226 224 221 219 220 220 219 220 220 222 222 222
329 327 326 325 326 326 326 328 331 333 335 336 339 341 343 343 343 344 344 343 342 341 340 342 346 351 355 357 357 357 359 360 0 1 3 3 4 6 7 3 349 323 289 265 254 250 248 246 244 243 241 238 236 236 235 233 230 228 228 228 229 230 228 226 224 223 225 231 238 238 235 235 232 227 225 223 221 220 220 220 220 221 222 222 222
329 326 325 323 323 323 322 322 323 326 328 331 335 339 340 340 339 339 341 340 338 338 337 336 338 343 349 352 354 355 357 358 359 359 359 360 0 1 3 4 0 346 318 286 263 253 249 246 244 243 242 240 237 236 235 235 233 231 229 228 228 228 227 226 224 223 223 226 232 236 235 236 237 233 227 224 223 221 221 221 221 222 222 223 222
331 328 325 323 322 320 319 318 319 321 325 328 331 335 336 336 334 334 336 337 335 333 333 332 331 335 341 346 349 352 355 357 358 358 357 357 357 358 359 1 2 358 343 314 283 262 252 248 245 243 241 241 240 237 236 235 235 234 232 229 228 228 228 227 225 224 224 224 227 233 234 234 236 237 231 226 224 224 223 222 222 222 223 223 223
334 331 327 324 321 318 316 316 317 319 321 324 326 329 332 332 331 329 330 332 332 329 327 327 327 329 334 340 343 346 350 353 355 355 356 355 354 354 356 357 359 359 355 339 310 280 261 251 247 244 242 241 241 240 238 236 236 235 234 232 229 227 228 229 227 225 225 224 225 229 232 232 235 236 232 227 225 225 226 224 223 223 223 224 223
335 332 329 326 322 319 317 316 315 317 318 320 323 325 328 329 329 327 325 326 329 327 323 322 324 326 330 334 338 341 344 347 350 352 353 353 352 351 352 354 356 358 358 352 335 306 277 260 251 246 244 242 241 241 240 238 236 236 236 234 231 229 228 229 228 227 226 226 225 227 230 232 234 235 231 226 225 225 226 226 225 225 225 225 224
332 330 328 326 323 320 318 315 314 314 316 319 322 324 326 328 328 325 323 322 325 326 322 319 321 323 326 329 333 336 339 341 344 347 349 350 350 349 349 350 352 355 357 356 348 331 301 275 259 250 246 244 242 241 241 240 238 236 236 236 234 231 229 228 228 227 228 228 227 226 229 231 233 233 231 226 225 224 223 223 225 225 225 225 225
328 326 325 324 323 320 317 315 314 314 316 319 323 325 325 327 327 325 322 320 321 324 321 316 317 320 322 326 329 332 335 337 340 343 345 346 347 346 346 348 349 351 354 356 353 345 326 298 274 257 248 245 244 242 241 242 241 239 236 235 235 233 231 229 228 229 229 229 227 224 227 230 231 231 230 227 225 224 223 222 222 223 223 224 226
324 323 323 322 321 320 318 317 316 316 318 321 323 324 325 326 326 324 320 317 317 321 321 315 313 318 321 323 326 329 332 334 336 339 341 342 343 344 344 345 347 349 351 354 354 350 340 321 296 273 256 247 244 243 242 241 241 241 239 236 235 234 232 231 230 231 230 228 226 222 223 228 229 230 230 227 226 226 224 223 222 222 223 224 226
323 322 322 322 322 321 321 320 319 320 320 322 323 324 324 324 324 322 319 315 314 319 319 314 312 316 319 321 324 327 329 331 333 335 337 339 340 341 342 343 345 346 348 351 353 351 345 333 314 293 273 256 247 243 242 241 241 241 240 238 235 234 233 232 230 231 230 226 224 221 222 225 226 227 228 228 228 226 224 224 222 221 223 225 226
324 324 324 324 324 324 323 322 321 321 321 322 322 322 323 322 322 321 318 314 313 317 318 314 312 314 317 319 322 324 327 328 330 332 334 335 336 338 339 341 342 344 344 347 349 350 347 339 326 307 289 272 257 248 243 242 241 240 239 238 236 234 234 232 230 229 228 226 223 222 223 224 225 225 225 227 229 227 224 225 223 222 223 223 223
324 325 325 325 325 324 323 321 320 320 321 321 322 322 322 322 322 322 320 314 311 313 316 314 311 311 313 316 319 322 324 325 326 329 331 332 333 334 336 338 340 341 342 343 345 347 345 342 333 318 301 286 270 257 248 244 241 240 239 238 237 235 233 232 231 228 226 225 224 223 224 225 225 225 224 224 226 228 226 225 225 223 222 222 222
324 324 324 324 324 323 321 320 319 320 321 322 322 322 321 321 322 322 321 316 311 311 315 315 312 310 311 313 316 319 321 323 324 326 328 329 330 332 334 336 338 339 339 340 341 343 342 340 336 326 309 296 283 270 258 249 244 241 239 238 237 235 233 231 230 228 225 223 223 224 224 225 224 224 224 222 222 225 226 226 225 224 223 222 222
322 322 323 323 322 321 320 319 318 319 322 323 324 323 323 323 322 321 320 318 315 312 314 316 313 311 311 312 314 317 319 321 323 325 326 327 328 329 331 333 336 337 338 337 337 339 339 337 333 327 314 299 288 280 269 258 250 244 241 238 236 236 234 232 230 228 226 223 222 223 224 224 223 223 223 223 221 222 224 225 223 223 223 222 221
319 319 320 322 321 320 319 318 317 318 319 321 323 323 324 325 324 322 321 320 317 314 314 315 314 312 312 312 314 316 318 320 322 324 325 325 326 327 329 331 334 335 336 336 335 336 336 334 331 325 315 301 287 280 275 268 258 249 243 239 237 236 235 233 231 229 227 225 222 222 223 224 223 222 223 223 222 221 223 224 223 222 221 220 219
319 317 318 321 320 318 319 318 317 315 313 314 319 322 323 324 323 323 323 323 320 318 316 315 314 313 313 313 314 315 317 319 321 323 323 323 323 325 327 329 332 334 335 335 333 333 334 332 330 327 319 308 292 279 274 272 266 257 248 242 238 235 234 234 233 230 228 227 224 223 223 224 224 223 223 223 222 222 222 223 222 221 220 218 218
323 321 320 320 319 316 317 317 315 313 309 310 315 318 320 321 321 321 322 323 323 321 316 313 312 313 313 312 312 315 317 319 320 321 321 321 322 324 326 328 330 332 334 334 333 332 331 330 328 326 323 317 305 290 278 272 269 264 255 247 241 237 234 233 233 232 230 228 226 225 224 224 224 224 224 223 223 222 222 222 221 220 220 219 219
326 325 324 321 318 316 316 315 313 311 309 309 312 313 315 318 319 319 319 321 322 319 316 313 312 312 311 311 312 314 316 318 319 319 319 320 322 323 325 327 329 331 332 332 332 331 329 328 327 325 325 323 316 305 292 279 271 267 261 252 245 239 235 233 232 231 230 229 227 226 225 224 224 225 225 224 223 223 222 222 221 220 220 220 219
325 327 324 320 318 317 315 314 311 309 308 308 309 310 314 318 318 317 317 318 319 316 315 313 311 311 310 311 313 314 315 316 317 318 319 320 322 323 324 326 328 329 330 330 331 331 328 326 326 325 325 326 322 313 302 290 278 270 264 256 248 243 238 234 232 231 230 229 228 227 226 226 225 225 226 224 223 222 222 221 221 220 220 220 220
322 324 321 318 317 316 315 314 311 307 306 306 309 312 316 318 318 316 315 316 316 315 313 312 312 311 311 312 313 313 314 315 316 316 317 318 321 323 324 326 327 328 329 329 330 331 327 324 324 324 325 326 324 317 306 296 285 275 268 259 250 245 241 237 233 231 230 229 228 227 226 226 226 225 225 224 222 221 221 221 221 220 220 220 219
318 321 319 314 313 312 311 312 311 307 305 306 311 315 317 317 317 316 315 313 312 312 312 312 313 314 314 313 313 312 313 314 315 315 315 317 320 322 323 325 326 327 327 328 329 329 327 323 323 323 325 325 324 318 307 297 288 278 271 264 253 246 243 240 236 232 230 228 228 228 226 225 226 225 224 223 222 221 221 221 221 220 220 220 220
314 318 317 313 309 308 310 313 313 309 305 308 314 317 317 316 315 315 316 313 309 310 311 312 314 314 313 312 311 312 314 314 314 314 315 317 319 320 323 324 325 325 325 327 329 328 325 323 322 322 324 325 324 319 309 299 289 279 272 267 259 249 242 241 238 234 231 229 227 227 227 226 225 225 224 223 222 221 221 221 221 221 220 221 221
312 315 316 314 309 309 313 314 314 311 308 310 315 318 317 315 313 313 315 314 310 308 309 310 311 310 309 310 311 313 314 314 314 314 314 316 318 320 323 324 324 324 325 326 328 327 324 322 322 322 324 325 324 320 311 302 292 280 272 268 263 254 244 239 238 236 233 230 227 226 226 226 225 224 224 223 222 221 221 221 220 220 221 221 222
313 314 314 314 310 310 313 313 313 312 309 311 314 316 316 313 310 312 314 315 311 307 305 306 306 306 307 309 311 313 314 314 314 314 314 316 318 321 323 323 322 323 324 325 326 325 323 321 321 323 324 324 324 321 313 304 295 283 273 268 264 257 247 239 236 236 234 231 228 226 225 225 225 224 223 223 222 221 221 221 220 220 220 221 222
312 311 311 312 310 309 310 310 311 312 312 313 314 314 313 309 308 311 313 313 310 306 304 304 304 305 307 309 310 312 313 313 313 314 314 316 319 321 321 321 321 322 323 324 325 324 321 320 322 324 325 324 323 321 315 305 295 285 274 268 264 258 249 240 235 234 234 232 229 226 224 224 224 223 223 222 222 221 221 221 220 219 220 220 221
306 307 308 308 307 307 307 308 310 313 314 314 312 309 309 306 307 309 310 309 307 305 304 304 304 306 308 309 311 311 311 312 313 313 315 317 319 319 319 319 319 321 322 323 323 322 320 320 323 324 325 324 322 319 314 305 296 286 274 266 263 258 250 241 234 231 232 232 230 227 224 223 223 223 222 222 221 221 221 221 220 219 219 219 220
301 303 305 304 303 305 306 306 308 311 313 311 307 305 305 305 306 308 307 305 304 303 303 302 303 305 307 309 310 310 310 311 312 313 315 317 317 317 317 317 318 319 320 322 322 320 319 321 324 324 325 324 322 318 312 305 296 286 274 265 261 258 251 242 235 230 229 230 230 228 225 223 222 222 221 221 221 221 220 220 220 219 218 218 218
299 300 301 301 300 303 306 307 306 308 309 306 303 302 302 304 305 305 303 303 302 302 301 299 300 303 306 308 308 308 309 310 312 313 314 315 315 315 315 316 317 318 319 320 320 318 319 322 324 324 324 324 321 317 311 304 296 285 274 265 260 257 252 244 236 230 227 228 228 228 227 224 221 221 221 220 221 221 220 220 220 220 219 218 217
294 296 297 299 300 302 305 308 308 307 304 300 298 298 299 301 301 300 299 300 300 300 298 297 298 301 304 305 306 307 308 309 311 312 313 313 313 314 314 315 315 317 318 319 318 318 320 322 323 323 324 324 321 316 310 304 295 284 274 265 259 255 251 246 239 232 228 226 226 227 227 227 222 220 220 220 220 221 220 219 220 220 220 220 218
291 293 296 299 302 305 308 310 309 306 299 293 293 293 293 295 296 296 296 297 297 297 296 296 297 300 302 303 305 306 308 309 310 310 311 311 312 313 313 314 315 316 317 317 317 319 321 322 323 323 324 323 321 316 310 304 296 284 273 266 260 255 251 247 243 237 230 225 223 224 226 229 225 220 219 220 219 220 220 219 220 220 220 220 219
290 291 292 295 300 305 309 309 305 298 291 287 286 287 288 290 292 293 294 295 294 294 294 295 297 299 301 302 304 306 308 308 308 309 309 310 311 312 312 313 314 315 315 316 318 319 320 321 322 323 324 323 321 317 310 304 297 286 275 267 261 255 252 248 243 240 234 224 220 221 224 229 229 222 218 219 219 220 220 219 220 220 220 220 219
288 287 287 291 297 302 303 300 293 287 283 281 282 283 286 288 290 291 291 292 292 292 293 295 296 298 300 302 304 306 306 307 307 307 308 309 310 311 312 312 313 313 315 317 318 318 319 320 322 323 324 323 321 317 310 303 298 288 278 270 263 256 252 248 243 241 238 227 217 216 221 228 230 224 219 219 218 218 219 219 220 220 220 219 219
285 283 284 288 291 290 288 286 282 279 277 277 278 281 283 285 286 288 289 290 291 291 292 293 295 297 300 302 304 304 304 305 305 306 307 309 310 310 311 311 312 313 315 316 317 317 318 320 321 323 324 323 321 318 310 303 297 290 281 272 265 258 251 248 243 240 239 231 217 211 215 225 229 224 219 219 218 217 218 218 219 219 219 219 218
281 280 281 281 279 278 278 279 278 277 277 277 277 279 281 283 285 287 288 289 290 290 291 292 294 297 299 300 301 302 302 303 304 306 307 308 309 309 310 310 311 313 314 315 315 316 317 319 321 322 323 323 321 317 310 303 296 290 282 273 266 260 252 247 243 239 237 231 217 205 208 220 227 223 218 218 218 216 216 217 217 218 218 219 218
280 275 273 273 274 276 277 276 275 275 276 276 277 278 280 283 285 287 287 288 288 289 290 292 293 295 297 298 299 300 301 302 304 305 307 308 308 308 308 309 311 312 313 314 314 315 317 318 320 322 323 323 321 317 311 303 296 290 284 274 265 259 253 247 243 239 236 230 214 199 202 217 224 222 218 217 217 216 215 216 216 217 217 218 218
271 267 265 269 274 276 276 274 272 271 271 274 276 278 279 282 284 285 286 287 287 289 290 292 293 294 296 297 298 300 301 302 304 305 306 307 307 307 308 309 311 312 312 313 314 315 316 318 320 322 323 323 321 317 311 304 296 288 283 275 266 258 251 246 243 240 236 228 211 198 204 216 222 221 218 217 217 216 215 215 215 216 216 216 217
264 262 261 264 268 270 271 271 270 268 269 273 277 279 280 281 283 285 286 287 288 289 291 292 293 294 296 298 299 300 301 302 304 305 305 305 305 306 308 309 310 311 311 312 313 314 316 318 320 321 322 321 320 316 311 304 296 287 280 274 267 259 251 245 242 239 235 226 210 203 209 217 220 220 218 217 218 218 216 215 215 215 214 215 216
Height
10964 10963 10962 10961 10960 10958 10957 10955 10954 10952 10952 10951 10949 10948 10946 10944 10942 10940 10938 10936 10934 10931 10929 10928 10926 10925 10925 10924 10924 10923 10923 10923 10923 10923 10924 10925 10925 10925 10925 10925 10925 10925 10926 10927 10927 10927 10927 10928 10929 10929 10930 10930 10930 10931 10931 10931 10931 10931 10930 10930 10930 10930 10931 10932 10932 10933 10934 10935 10935 10936 10937 10937 10938 10938 10937 10937 10937 10937 10937 10937 10937 10937 10937 10937 10937
10965 10964 10962 10961 10960 10958 10957 10955 10954 10953 10952 10950 10949 10947 10945 10944 10942 10940 10938 10936 10933 10931 10929 10926 10925 10923 10922 10921 10921 10921 10920 10920 10920 10921 10921 10922 10922 10922 10922 10922 10923 10923 10923 10924 10924 10924 10924 10925 10926 10927 10927 10927 10928 10929 10930 10930 10930 10930 10930 10929 10929 10929 10930 10931 10931 10932 10933 10934 10935 10935 10936 10937 10937 10938 10938 10938 10938 10937 10937 10937 10937 10937 10937 10937 10937
10965 10964 10962 10961 10959 10958 10957 10956 10954 10953 10952 10950 10949 10947 10945 10943 10941 10939 10937 10935 10932 10930 10927 10924 10922 10921 10919 10918 10918 10917 10917 10917 10917 10917 10918 10918 10919 10919 10919 10919 10919 10920 10921 10921 10922 10922 10922 10923 10924 10925 10925 10924 10925 10927 10928 10929 10929 10929 10929 10929 10928 10929 10929 10929 10930 10931 10931 10932 10934 10934 10935 10936 10937 10937 10938 10938 10938 10938 10938 10938 10938 10937 10938 10938 10938
10965 10964 10962 10961 10959 10958 10957 10956 10955 10953 10952 10950 10948 10946 10944 10942 10940 10938 10936 10933 10931 10928 10926 10923 10920 10918 10917 10916 10915 10914 10914 10914 10913 10914 10914 10914 10915 10915 10915 10915 10915 10916 10917 10918 10918 10918 10919 10920 10922 10922 10922 10922 10923 10925 10926 10927 10928 10928 10928 10928 10927 10927 10928 10928 10929 10930 10930 10930 10932 10933 10934 10935 10936 10937 10937 10937 10938 10938 10938 10938 10937 10937 10937 10938 10938
10965 10964 10962 10961 10959 10958 10957 10956 10955 10953 10952 10950 10948 10946 10944 10941 10939 10937 10934 10932 10930 10927 10925 10922 10919 10917 10915 10913 10912 10911 10910 10910 10910 10909 10909 10910 10910 10910 10911 10911 10911 10912 10913 10914 10915 10915 10915 10917 10919 10920 10920 10920 10921 10922 10923 10924 10925 10926 10927 10927 10926 10926 10926 10927 10928 10929 10929 10929 10930 10931 10932 10934 10935 10936 10936 10937 10937 10937 10937 10937 10937 10937 10937 10937 10937
10966 10964 10962 10961 10959 10958 10957 10955 10954 10953 10951 10949 10947 10945 10944 10941 10939 10936 10933 10931 10929 10926 10924 10921 10918 10916 10914 10912 10910 10908 10907 10906 10906 10905 10905 10905 10905 10905 10906 10907 10907 10907 10908 10910 10911 10911 10912 10913 10915 10917 10917 10917 10918 10919 10920 10921 10922 10923 10924 10925 10924 10924 10924 10925 10926 10928 10928 10928 10928 10929 10930 10932 10933 10935 10935 10936 10936 10936 10937 10937 10937 10937 10937 10937 10937
10966 10964 10963 10961 10960 10958 10956 10955 10953 10952 10950 10948 10946 10944 10942 10940 10938 10935 10932 10930 10929 10926 10924 10921 10918 10915 10913 10910 10908 10906 10904 10903 10902 10901 10901 10901 10900 10901 10901 10902 10902 10903 10903 10905 10906 10907 10909 10910 10911 10913 10914 10914 10915 10916 10917 10918 10919 10920 10922 10923 10923 10923 10923 10924 10925 10926 10927 10928 10928 10928 10928 10930 10932 10933 10934 10935 10935 10935 10936 10936 10936 10936 10937 10937 10937
10965 10964 10962 10961 10959 10957 10955 10953 10952 10951 10949 10947 10945 10943 10941 10938 10936 10933 10930 10929 10928 10926 10924 10921 10918 10915 10913 10911 10908 10905 10903 10901 10899 10898 10897 10896 10896 10896 10897 10897 10897 10898 10898 10900 10901 10903 10904 10906 10907 10909 10910 10911 10912 10913 10914 10914 10915 10916 10918 10920 10922 10922 10923 10923 10923 10924 10925 10926 10927 10927 10927 10928 10929 10931 10933 10934 10934 10934 10934 10935 10935 10935 10936 10936 10936
10964 10963 10961 10960 10958 10956 10954 10952 10951 10949 10947 10944 10942 10940 10938 10936 10934 10932 10929 10927 10926 10924 10922 10919 10917 10915 10913 10911 10908 10905 10902 10899 10897 10895 10894 10893 10892 10892 10892 10893 10893 10893 10893 10894 10896 10898 10900 10901 10903 10905 10906 10908 10909 10910 10911 10911 10912 10913 10915 10917 10919 10921 10921 10921 10921 10922 10923 10924 10925 10925 10925 10926 10927 10928 10930 10932 10933 10933 10933 10934 10934 10934 10935 10935 10936
10963 10962 10960 10959 10957 10955 10953 10951 10949 10947 10944 10942 10940 10938 10936 10934 10933 10931 10929 10927 10925 10922 10919 10918 10916 10914 10912 10909 10907 10904 10901 10898 10896 10893 10891 10890 10888 10888 10888 10888 10889 10889 10889 10890 10891 10893 10895 10897 10898 10900 10901 10903 10905 10906 10907 10908 10909 10910 10912 10913 10915 10917 10918 10918 10919 10919 10920 10922 10923 10924 10924 10924 10924 10925 10927 10929 10931 10932 10932 10933 10933 10933 10933 10934 10934
10962 10961 10959 10958 10956 10954 10952 10950 10948 10945 10942 10940 10938 10936 10934 10932 10931 10929 10928 10926 10924 10921 10918 10916 10914 10912 10910 10907 10905 10903 10900 10898 10895 10892 10889 10887 10886 10884 10884 10883 10884 10885 10885 10886 10887 10888 10890 10892 10893 10895 10896 10899 10901 10902 10903 10904 10906 10907 10909 10910 10911 10913 10915 10916 10916 10917 10918 10919 10920 10921 10922 10922 10922 10923 10924 10926 10928 10930 10931 10931 10932 10932 10933 10933 10933
10961 10960 10958 10956 10955 10953 10950 10948 10945 10943 10940 10938 10936 10934 10932 10930 10929 10927 10926 10924 10922 10920 10917 10914 10912 10910 10907 10905 10902 10900 10898 10896 10894 10892 10889 10886 10883 10881 10880 10879 10879 10879 10880 10882 10882 10883 10885 10886 10888 10890 10891 10893 10895 10897 10899 10900 10902 10904 10905 10906 10908 10909 10912 10913 10914 10915 10916 10916 10917 10918 10919 10920 10921 10921 10922 10923 10925 10927 10928 10930 10931 10931 10931 10932 10932
10959 10958 10956 10955 10953 10951 10949 10946 10943 10940 10938 10936 10934 10932 10930 10928 10927 10925 10923 10921 10919 10918 10916 10914 10911 10908 10905 10903 10901 10898 10896 10894 10892 10890 10887 10885 10882 10879 10877 10875 10875 10874 10875 10876 10877 10878 10880 10881 10883 10885 10886 10887 10889 10891 10894 10896 10898 10899 10901 10902 10904 10905 10907 10909 10911 10912 10912 10913 10914 10915 10916 10917 10918 10919 10920 10921 10922 10924 10926 10927 10929 10930 10930 10931 10931
10957 10956 10954 10953 10951 10949 10947 10944 10941 10938 10936 10934 10932 10931 10929 10927 10925 10923 10920 10918 10916 10915 10914 10912 10910 10907 10904 10901 10899 10896 10894 10892 10889 10887 10885 10883 10880 10877 10874 10872 10870 10870 10869 10870 10872 10873 10874 10876 10877 10879 10880 10881 10883 10885 10888 10890 10893 10895 10896 10898 10899 10901 10903 10905 10907 10908 10910 10911 10912 10914 10914 10914 10915 10917 10918 10919 10920 10922 10923 10925 10926 10928 10928 10929 10930
10955 10953 10952 10951 10949 10947 10944 10942 10939 10937 10934 10932 10931 10929 10927 10925 10923 10920 10917 10915 10913 10912 10910 10909 10908 10905 10902 10899 10896 10893 10891 10889 10886 10884 10882 10880 10878 10876 10873 10869 10866 10865 10865 10865 10866 10867 10869 10870 10872 10873 10874 10876 10877 10879 10881 10884 10887 10889 10892 10894 10895 10897 10898 10900 10902 10904 10906 10909 10910 10911 10911 10911 10912 10913 10914 10916 10917 10919 10921 10922 10924 10925 10927 10927 10928
10952 10951 10949 10948 10946 10944 10942 10940 10938 10935 10933 10932 10930 10927 10924 10922 10919 10917 10914 10912 10911 10909 10907 10906 10905 10903 10901 10898 10894 10891 10888 10885 10883 10881 10879 10877 10875 10873 10871 10868 10864 10861 10860 10860 10860 10861 10863 10864 10866 10867 10868 10870 10871 10873 10875 10877 10880 10883 10886 10888 10890 10892 10894 10896 10897 10899 10902 10905 10906 10906 10907 10908 10908 10909 10911 10913 10914 10916 10918 10919 10921 10923 10925 10926 10927
10949 10947 10946 10944 10943 10941 10939 10937 10936 10934 10932 10929 10927 10924 10921 10918 10916 10914 10912 10910 10908 10906 10904 10903 10901 10900 10899 10897 10894 10890 10886 10883 10880 10878 10876 10874 10872 10870 10868 10865 10863 10859 10856 10855 10854 10855 10856 10858 10860 10861 10863 10864 10866 10867 10869 10871 10873 10876 10879 10882 10885 10887 10889 10890 10892 10894 10897 10900 10901 10902 10903 10904 10905 10906 10907 10909 10911 10913 10915 10917 10918 10921 10922 10924 10925
10946 10944 10942 10941 10939 10938 10936 10935 10933 10931 10929 10926 10923 10921 10918 10916 10914 10912 10910 10907 10905 10903 10901 10899 10898 10897 10896 10894 10892 10889 10886 10882 10879 10876 10874 10871 10869 10867 10865 10862 10859 10857 10854 10851 10850 10849 10850 10851 10853 10855 10857 10858 10860 10861 10863 10865 10867 10869 10872 10876 10878 10881 10883 10885 10887 10889 10891 10894 10896 10897 10899 10900 10901 10902 10904 10906 10908 10911 10913 10914 10916 10918 10920 10921 10923
10942 10941 10939 10938 10936 10935 10933 10932 10930 10928 10926 10923 10921 10919 10918 10915 10913 10910 10908 10906 10903 10901 10898 10896 10895 10893 10891 10889 10888 10885 10883 10881 10878 10875 10872 10869 10867 10865 10862 10860 10857 10854 10851 10848 10846 10845 10844 10845 10846 10848 10851 10853 10854 10855 10857 10859 10861 10863 10866 10869 10872 10875 10877 10879 10881 10883 10885 10888 10890 10892 10894 10896 10897 10898 10900 10902 10905 10908 10910 10912 10914 10915 10917 10919 10920
10940 10938 10937 10935 10934 10932 10931 10929 10927 10926 10924 10922 10920 10918 10916 10914 10911 10908 10906 10904 10901 10899 10896 10893 10891 10889 10886 10884 10882 10880 10878 10876 10874 10872 10870 10868 10866 10863 10860 10857 10855 10852 10848 10845 10843 10840 10839 10840 10840 10842 10844 10846 10848 10850 10851 10854 10856 10858 10860 10862 10865 10868 10870 10872 10874 10877 10880 10882 10885 10887 10889 10892 10893 10894 10896 10898 10901 10904 10906 10908 10911 10912 10914 10916 10917
10938 10936 10934 10933 10931 10930 10929 10927 10925 10923 10921 10920 10918 10915 10913 10910 10907 10905 10902 10900 10898 10895 10892 10890 10887 10885 10883 10880 10878 10876 10873 10871 10869 10867 10866 10864 10863 10861 10858 10855 10852 10849 10846 10842 10839 10837 10835 10834 10835 10836 10837 10839 10841 10844 10846 10848 10850 10852 10854 10856 10858 10861 10863 10866 10868 10871 10873 10876 10879 10881 10884 10887 10889 10890 10892 10894 10896 10898 10900 10902 10904 10907 10910 10912 10914
10935 10934 10932 10930 10929 10928 10926 10925 10923 10920 10918 10916 10914 10911 10909 10906 10903 10901 10898 10896 10894 10892 10889 10886 10884 10881 10879 10877 10874 10871 10869 10866 10864 10861 10859 10858 10857 10856 10855 10853 10851 10848 10844 10840 10836 10833 10831 10830 10829 10830 10831 10832 10835 10837 10839 10841 10843 10846 10848 10850 10852 10854 10856 10859 10862 10864 10867 10869 10872 10875 10878 10881 10884 10886 10888 10890 10892 10894 10895 10896 10898 10901 10904 10907 10910
10933 10931 10929 10928 10926 10925 10923 10921 10919 10917 10915 10912 10910 10907 10904 10902 10899 10897 10894 10892 10890 10889 10886 10883 10880 10878 10875 10873 10870 10868 10865 10862 10859 10857 10854 10852 10850 10849 10848 10847 10846 10845 10842 10839 10835 10830 10827 10825 10824 10824 10824 10826 10828 10830 10832 10834 10836 10839 10841 10843 10845 10847 10849 10852 10855 10858 10860 10863 10865 10868 10871 10874 10877 10880 10883 10885 10887 10889 10891 10892 10894 10896 10899 10901 10904
10930 10928 10926 10924 10922 10921 10919 10917 10915 10913 10911 10908 10906 10903 10900 10898 10895 10893 10891 10888 10887 10885 10883 10880 10877 10875 10872 10870 10867 10864 10862 10859 10856 10853 10850 10847 10845 10843 10841 10840 10839 10838 10837 10836 10834 10830 10825 10822 10820 10819 10818 10819 10820 10822 10824 10826 10829 10831 10833 10836 10838 10840 10842 10845 10847 10850 10853 10856 10858 10861 10864 10867 10870 10873 10877 10880 10882 10884 10886 10888 10890 10892 10894 10896 10899
10927 10925 10923 10921 10919 10917 10915 10913 10911 10909 10907 10904 10902 10899 10896 10894 10892 10890 10887 10885 10883 10882 10879 10877 10874 10872 10869 10866 10863 10861 10858 10856 10853 10850 10847 10844 10841 10839 10836 10834 10832 10831 10830 10830 10830 10828 10824 10819 10816 10815 10814 10814 10813 10814 10816 10818 10820 10822 10825 10827 10830 10832 10834 10837 10840 10842 10845 10848 10851 10854 10857 10860 10863 10866 10870 10873 10876 10878 10881 10883 10885 10887 10889 10892 10895
10924 10922 10919 10917 10915 10913 10911 10909 10907 10905 10903 10900 10898 10895 10893 10891 10889 10886 10884 10881 10879 10878 10876 10873 10871 10868 10865 10863 10860 10857 10855 10853 10850 10847 10844 10841 10839 10836 10833 10829 10826 10825 10823 10823 10823 10823 10821 10818 10813 10811 10809 10809 10808 10808 10808 10809 10810 10812 10815 10818 10821 10823 10826 10828 10831 10834 10837 10840 10843 10846 10849 10853 10856 10859 10862 10866 10869 10872 10875 10877 10880 10882 10884 10886 10889
10920 10918 10916 10914 10912 10909 10907 10905 10903 10901 10899 10896 10894 10892 10890 10888 10885 10883 10880 10877 10875 10873 10871 10869 10867 10865 10862 10859 10856 10853 10851 10849 10847 10844 10841 10838 10835 10832 10829 10825 10821 10818 10816 10815 10816 10817 10816 10814 10811 10807 10805 10803 10803 10802 10801 10801 10801 10802 10805 10808 10811 10814 10817 10819 10822 10825 10828 10831 10834 10837 10841 10844 10848 10852 10855 10858 10862 10865 10868 10871 10873 10876 10879 10881 10884
10917 10915 10913 10910 10908 10905 10903 10901 10899 10897 10895 10893 10891 10889 10887 10884 10882 10879 10877 10874 10871 10869 10867 10865 10863 10860 10858 10855 10852 10849 10847 10845 10843 10840 10837 10833 10830 10827 10824 10822 10818 10813 10809 10806 10806 10809 10809 10807 10805 10803 10800 10798 10796 10795 10795 10794 10793 10793 10794 10796 10800 10803 10806 10809 10812 10815 10818 10822 10825 10828 10832 10836 10839 10843 10847 10851 10854 10858 10861 10864 10867 10870 10873 10876 10879
10914 10912 10909 10907 10904 10902 10899 10896 10895 10893 10891 10889 10887 10885 10883 10880 10878 10875 10873 10870 10867 10865 10862 10860 10858 10856 10854 10851 10848 10846 10843 10840 10838 10835 10832 10829 10826 10823 10819 10817 10814 10810 10805 10799 10795 10798 10800 10799 10798 10796 10793 10791 10789 10787 10787 10786 10785 10784 10784 10785 10788 10792 10796 10799 10803 10806 10809 10812 10816 10819 10823 10826 10831 10835 10839 10843 10847 10850 10854 10857 10860 10864 10867 10870 10873
10910 10908 10905 10903 10900 10898 10895 10893 10891 10889 10887 10884 10882 10879 10877 10875 10873 10870 10868 10865 10862 10859 10857 10855 10853 10851 10848 10846 10843 10841 10838 10835 10833 10830 10827 10824 10821 10818 10814 10811 10808 10805 10801 10794 10787 10786 10789 10788 10787 10787 10785 10782 10781 10780 10779 10778 10777 10776 10775 10775 10776 10780 10784 10788 10792 10796 10800 10803 10807 10810 10814 10818 10822 10826 10830 10835 10839 10843 10847 10850 10854 10857 10861 10864 10867
10905 10903 10900 10898 10895 10893 10891 10888 10886 10884 10882 10879 10876 10873 10871 10869 10867 10864 10862 10860 10857 10854 10851 10849 10847 10845 10843 10840 10837 10834 10832 10830 10827 10824 10821 10818 10815 10812 10809 10805 10802 10799 10796 10791 10782 10776 10777 10778 10776 10776 10776 10772 10770 10770 10769 10768 10767 10766 10765 10764 10766 10768 10771 10774 10779 10784 10788 10793 10798 10801 10805 10809 10813 10817 10822 10826 10831 10835 10839 10843 10847 10851 10854 10858 10861
10899 10897 10894 10892 10889 10887 10885 10883 10881 10879 10876 10874 10871 10868 10865 10863 10860 10858 10855 10853 10851 10848 10845 10843 10841 10838 10836 10834 10831 10828 10825 10823 10821 10818 10815 10812 10809 10805 10802 10799 10796 10793 10789 10786 10780 10770 10766 10767 10766 10764 10764 10762 10759 10758 10758 10756 10755 10755 10754 10753 10754 10756 10759 10761 10765 10770 10776 10781 10787 10792 10796 10801 10805 10809 10813 10818 10822 10827 10832 10836 10840 10844 10848 10852 10855
10894 10891 10888 10886 10884 10882 10880 10878 10875 10873 10870 10867 10865 10862 10859 10856 10853 10851 10848 10847 10844 10842 10839 10837 10834 10832 10829 10827 10824 10821 10818 10816 10814 10811 10808 10805 10803 10799 10796 10792 10788 10785 10782 10779 10775 10768 10759 10757 10757 10754 10752 10751 10749 10746 10746 10744 10742 10742 10742 10741 10742 10744 10746 10749 10753 10757 10763 10768 10774 10780 10786 10791 10795 10800 10804 10809 10814 10818 10823 10828 10833 10837 10841 10845 10849
10888 10887 10884 10881 10880 10877 10875 10873 10870 10866 10863 10861 10858 10855 10852 10849 10846 10844 10842 10840 10838 10835 10833 10830 10828 10825 10822 10820 10817 10814 10811 10809 10807 10804 10801 10799 10796 10792 10788 10784 10780 10777 10774 10771 10769 10764 10755 10748 10747 10745 10742 10739 10737 10735 10734 10732 10729 10728 10727 10728 10730 10732 10733 10736 10740 10745 10750 10756 10762 10767 10774 10780 10785 10790 10795 10799 10804 10809 10815 10820 10825 10830 10834 10838 10842
10883 10882 10879 10877 10875 10873 10870 10867 10864 10860 10857 10854 10852 10848 10845 10842 10840 10837 10835 10834 10832 10829 10826 10824 10820 10817 10814 10812 10809 10806 10804 10801 10799 10797 10794 10791 10788 10785 10780 10776 10772 10768 10766 10764 10761 10757 10751 10743 10737 10734 10732 10728 10725 10723 10722 10720 10717 10714 10713 10714 10717 10720 10721 10723 10727 10732 10737 10744 10750 10755 10761 10768 10774 10780 10785 10790 10795 10800 10805 10811 10816 10822 10827 10831 10836
10878 10876 10873 10871 10869 10866 10864 10861 10857 10853 10850 10848 10845 10842 10839 10836 10833 10830 10828 10827 10825 10822 10819 10816 10813 10809 10807 10804 10802 10799 10796 10794 10791 10789 10786 10784 10780 10777 10772 10768 10764 10760 10757 10755 10752 10749 10745 10738 10730 10724 10720 10717 10713 10709 10708 10708 10704 10701 10700 10700 10704 10708 10709 10710 10714 10719 10724 10731 10738 10743 10749 10756 10762 10768 10775 10780 10785 10790 10796 10802 10807 10813 10818 10823 10828
10873 10871 10867 10865 10862 10860 10857 10854 10851 10848 10845 10842 10839 10835 10832 10830 10827 10824 10822 10820 10818 10816 10812 10809 10806 10803 10800 10797 10795 10792 10789 10786 10783 10780 10778 10775 10771 10767 10763 10758 10755 10752 10748 10745 10743 10740 10736 10732 10725 10716 10710 10706 10701 10696 10693 10693 10692 10689 10687 10688 10691 10694 10697 10699 10702 10706 10710 10717 10724 10731 10737 10744 10750 10756 10763 10770 10775 10781 10786 10792 10798 10804 10810 10815 10821
10866 10864 10861 10859 10857 10854 10851 10848 10845 10842 10839 10836 10833 10829 10826 10823 10820 10818 10816 10814 10812 10810 10807 10803 10800 10797 10794 10790 10787 10784 10781 10777 10774 10772 10769 10765 10761 10756 10753 10749 10746 10743 10739 10736 10733 10730 10727 10723 10717 10710 10702 10694 10690 10685 10681 10679 10679 10678 10676 10676 10677 10680 10685 10689 10692 10694 10697 10703 10711 10718 10725 10732 10738 10744 10751 10758 10765 10771 10777 10783 10789 10795 10801 10807 10813
10858 10857 10855 10854 10851 10849 10847 10844 10841 10837 10834 10831 10827 10824 10821 10817 10814 10812 10809 10807 10805 10803 10801 10797 10794 10791 10787 10783 10779 10776 10773 10769 10766 10763 10760 10756 10752 10747 10743 10740 10737 10734 10730 10726 10723 10721 10717 10713 10707 10701 10694 10686 10679 10675 10670 10666 10665 10665 10665 10664 10664 10667 10673 10678 10681 10683 10685 10690 10697 10704 10712 10718 10725 10732 10739 10747 10755 10761 10767 10774 10780 10786 10793 10799 10804
10853 10851 10850 10848 10846 10844 10841 10838 10835 10832 10829 10826 10822 10819 10815 10812 10808 10806 10803 10801 10799 10796 10794 10791 10787 10784 10780 10776 10772 10769 10765 10761 10758 10755 10751 10747 10743 10738 10734 10731 10727 10724 10721 10717 10714 10711 10707 10702 10696 10690 10685 10678 10670 10664 10659 10655 10652 10652 10654 10654 10653 10656 10662 10667 10670 10672 10674 10678 10683 10691 10699 10705 10712 10720 10727 10735 10743 10750 10757 10764 10771 10777 10784 10790 10796
10847 10845 10845 10843 10841 10839 10836 10833 10830 10827 10823 10820 10817 10813 10810 10806 10802 10800 10797 10795 10792 10790 10787 10784 10781 10778 10774 10768 10764 10761 10757 10753 10750 10746 10742 10738 10734 10730 10726 10721 10718 10714 10711 10708 10704 10701 10696 10690 10685 10680 10675 10669 10661 10654 10648 10645 10642 10640 10641 10643 10644 10647 10651 10655 10657 10659 10662 10666 10670 10678 10686 10692 10699 10707 10715 10723 10731 10738 10747 10755 10761 10768 10774 10781 10787
10841 10839 10840 10838 10836 10834 10831 10828 10825 10821 10818 10814 10811 10807 10803 10800 10796 10793 10791 10788 10786 10784 10780 10777 10774 10771 10766 10760 10756 10753 10749 10746 10742 10738 10734 10729 10725 10721 10717 10713 10708 10705 10702 10698 10694 10691 10686 10679 10674 10669 10665 10659 10652 10644 10638 10634 10632 10630 10631 10633 10635 10637 10640 10643 10645 10647 10651 10655 10661 10668 10673 10679 10687 10696 10703 10712 10719 10727 10737 10745 10752 10759 10765 10772 10779
10837 10835 10835 10834 10832 10829 10827 10824 10819 10815 10812 10808 10804 10800 10797 10793 10790 10787 10784 10782 10779 10777 10773 10769 10767 10764 10759 10753 10749 10745 10742 10739 10735 10731 10726 10721 10716 10712 10708 10703 10699 10695 10692 10688 10684 10679 10674 10669 10664 10658 10654 10649 10642 10634 10627 10624 10623 10621 10621 10623 10625 10627 10630 10633 10635 10638 10641 10647 10653 10659 10662 10666 10676 10686 10693 10702 10710 10717 10726 10735 10742 10749 10756 10763 10771
10833 10830 10828 10827 10826 10823 10820 10817 10813 10808 10805 10801 10796 10793 10790 10786 10783 10780 10777 10775 10772 10769 10766 10762 10759 10756 10751 10746 10742 10738 10734 10732 10728 10722 10718 10713 10708 10704 10699 10694 10689 10684 10681 10678 10673 10668 10663 10659 10655 10649 10643 10639 10633 10625 10617 10614 10614 10612 10612 10614 10616 10618 10620 10624 10627 10628 10631 10639 10646 10651 10653 10654 10663 10677 10686 10693 10700 10706 10715 10725 10732 10740 10747 10754 10762
10829 10825 10821 10819 10818 10816 10813 10809 10806 10802 10797 10792 10788 10785 10782 10779 10776 10773 10769 10767 10764 10761 10758 10754 10751 10747 10743 10739 10736 10732 10727 10724 10719 10714 10710 10705 10700 10695 10689 10684 10679 10675 10671 10667 10662 10657 10652 10649 10645 10640 10634 10628 10623 10616 10608 10605 10605 10605 10604 10605 10606 10609 10612 10614 10617 10617 10620 10630 10639 10644 10646 10645 10653 10670 10679 10682 10688 10697 10707 10716 10723 10731 10739 10746 10753
10823 10820 10816 10814 10813 10811 10807 10802 10798 10794 10788 10784 10780 10777 10775 10772 10769 10766 10761 10758 10756 10753 10751 10747 10743 10738 10735 10732 10729 10724 10719 10715 10711 10706 10702 10697 10691 10685 10679 10674 10669 10665 10661 10656 10651 10646 10642 10639 10636 10631 10626 10619 10613 10608 10601 10597 10596 10597 10597 10596 10597 10601 10604 10604 10607 10608 10611 10621 10631 10637 10640 10638 10644 10661 10669 10670 10679 10690 10698 10706 10713 10721 10729 10736 10743
10815 10814 10813 10810 10807 10803 10798 10792 10788 10784 10779 10776 10773 10770 10768 10765 10761 10757 10753 10750 10748 10746 10743 10740 10735 10731 10727 10724 10720 10715 10710 10706 10702 10697 10693 10688 10682 10676 10670 10664 10659 10655 10651 10645 10640 10636 10632 10629 10626 10622 10617 10610 10604 10599 10594 10590 10588 10589 10590 10589 10588 10593 10595 10594 10598 10601 10602 10611 10622 10632 10636 10633 10635 10648 10657 10660 10669 10680 10686 10694 10702 10709 10718 10725 10733
10809 10807 10806 10802 10797 10794 10790 10785 10781 10777 10773 10770 10766 10764 10761 10758 10753 10749 10745 10742 10740 10737 10735 10732 10729 10725 10721 10716 10711 10706 10701 10697 10692 10688 10684 10679 10673 10667 10661 10656 10650 10644 10640 10635 10630 10626 10622 10619 10616 10612 10608 10602 10596 10590 10586 10583 10581 10581 10582 10581 10581 10584 10586 10586 10590 10592 10594 10603 10615 10626 10632 10627 10624 10634 10645 10650 10659 10668 10674 10682 10689 10696 10704 10713 10722
10804 10800 10797 10793 10790 10787 10785 10780 10775 10771 10768 10763 10760 10758 10754 10750 10745 10741 10737 10733 10730 10728 10727 10725 10722 10718 10713 10708 10703 10698 10693 10688 10683 10679 10674 10669 10664 10658 10653 10647 10641 10635 10629 10625 10620 10616 10612 10609 10606 10603 10599 10594 10588 10583 10579 10576 10575 10574 10573 10573 10575 10577 10577 10578 10581 10584 10587 10596 10608 10620 10624 10615 10611 10622 10634 10640 10647 10655 10660 10667 10674 10682 10692 10702 10712
10796 10791 10788 10786 10783 10779 10776 10772 10768 10765 10761 10757 10753 10750 10746 10741 10737 10733 10728 10724 10721 10720 10719 10716 10713 10709 10705 10700 10694 10689 10684 10680 10675 10670 10665 10660 10655 10650 10644 10638 10632 10625 10620 10615 10610 10606 10602 10599 10596 10593 10589 10585 10580 10575 10571 10569 10568 10567 10566 10566 10567 10569 10570 10571 10574 10576 10581 10590 10601 10610 10611 10603 10601 10613 10625 10631 10636 10641 10646 10654 10662 10671 10683 10695 10705
10785 10782 10780 10778 10775 10771 10767 10764 10760 10757 10753 10749 10745 10741 10737 10733 10729 10724 10720 10716 10713 10711 10709 10706 10703 10700 10696 10692 10686 10680 10676 10672 10666 10661 10656 10651 10645 10640 10635 10629 10623 10616 10610 10605 10601 10596 10592 10588 10585 10582 10580 10577 10573 10568 10564 10562 10561 10561 10560 10560 10559 10561 10562 10564 10567 10570 10574 10582 10592 10599 10599 10594 10596 10606 10617 10623 10626 10630 10637 10646 10655 10665 10677 10688 10698